Location: Moscow
(55.7500°N, 37.5830°E)
Time: 23:02:25
(UTC+03:00)

A-11 Canister half - Pass Details

Date: 04 December 2021
Orbit: 1516 x 1684 km, 47.2° (Epoch: 16 January)

Event Time Altitude Azimuth Distance (km) Brightness Sun altitude
Rises 06:15:41 0° 192° (SSW) 4,750 11.6 -18.8°
Reaches altitude 10° 06:19:43 10° 177° (S) 3,798 11.2 -18.3°
Maximum altitude 06:26:16 21° 134° (SE) 3,075 11.3 -17.4°
Drops below altitude 10° 06:32:56 10° 91° (E) 3,898 12.3 -16.5°
Sets 06:37:08 0° 77° (ENE) 4,910 12.7 -15.9°
